Omaha, IA

8:21 AM CDT on October 18, 2017 (GMT -0500)
Eppley Airfield

Weather History for KOMA - May, 2012

Change the Weather History Date:

Thursday, May 24, 2012

  Actual Average Record
Temperature  
Mean Temperature 64 °F 65 °F  
Max Temperature 72 °F 76 °F 99 °F (1939)
Min Temperature 55 °F 54 °F 36 °F (1924)
Degree Days  
Heating Degree Days 1 3  
Month to date heating degree days 31 131  
Since 1 July heating degree days 4771 6133  
Cooling Degree Days 0 3  
Month to date cooling degree days 125 41  
Year to date cooling degree days 193 57  
Growing Degree Days 16 (Base 50)    
Moisture  
Dew Point 58 °F    
Average Humidity 74    
Maximum Humidity 90    
Minimum Humidity 57    
Precipitation  
Precipitation 0.02 in 0.15 in 2.28 in (2004)
Month to date precipitation 3.07 3.64  
Year to date precipitation 10.26 10.16  
Snow  
Snow 0.00 in 0.00 in - ()
Month to date snowfall 0.0 0.1  
Since 1 July snowfall 20.4 26.5  
Snow Depth 0.00 in    
Sea Level Pressure  
Sea Level Pressure 29.50 in    
Wind  
Wind Speed 9 mph (NNW)    
Max Wind Speed 25 mph    
Max Gust Speed 30 mph    
Visibility 9 miles    
Events Rain , Thunderstorm    
T = Trace of Precipitation, MM = Missing Value Source: NWS Daily Summary

Daily Weather History Graph

Daily Weather History Graph

Search for Another Location

Airport or City:

Trip Planner

Search our weather history database for the weather conditions in past years. The results will help you decide how hot, cold, wet, or windy it might be!

Date:

Astronomy

May. 24, 2012 Rise Set
Actual Time 5:57 AM CDT 8:44 PM CDT
Civil Twilight 5:24 AM CDT 9:16 PM CDT
Nautical Twilight 4:43 AM CDT 9:57 PM CDT
Astronomical Twilight 3:57 AM CDT 10:44 PM CDT
Moon 8:58 AM CDT (5/24) 11:44 PM CDT (5/24)
Length of Visible Light 15h 52m
Length of Day
14h 47m
Waxing Crescent, 12% of the Moon is Illuminated
May 24
Waxing Crescent
May 28
First Quarter
Jun 4
Full
Jun 11
Last Quarter
Jun 19
New

Hourly Weather History & Observations

Time (CDT) Temp. Dew Point Humidity Pressure Visibility Wind Dir Wind Speed Gust Speed Precip Events Conditions
12:52 AM 68.0 °F 64.0 °F 87% 29.43 in 10.0 mi NNW 17.3 mph 24.2 mph N/A   Overcast
1:52 AM 62.1 °F 57.0 °F 84% 29.45 in 10.0 mi North 15.0 mph 24.2 mph 0.00 in Rain Light Rain
2:08 AM 62.6 °F 57.2 °F 82% 29.47 in 10.0 mi North 11.5 mph - 0.00 in Rain , Thunderstorm Light Thunderstorms and Rain
2:40 AM 62.6 °F 57.2 °F 82% 29.45 in 10.0 mi North 10.4 mph - 0.00 in   Overcast
2:52 AM 62.1 °F 59.0 °F 90% 29.43 in 10.0 mi Variable 3.5 mph - 0.00 in   Overcast
3:52 AM 63.0 °F 57.9 °F 84% 29.42 in 10.0 mi NNW 5.8 mph - 0.00 in Rain Light Rain
4:49 AM 60.8 °F 57.2 °F 88% 29.46 in 10.0 mi NNW 18.4 mph 28.8 mph 0.00 in   Overcast
4:52 AM 61.0 °F 57.0 °F 87% 29.42 in 10.0 mi NNW 17.3 mph 28.8 mph 0.00 in   Overcast
5:05 AM 60.8 °F 57.2 °F 88% 29.46 in 10.0 mi North 16.1 mph - N/A   Overcast
5:52 AM 62.1 °F 57.9 °F 86% 29.41 in 10.0 mi North 9.2 mph - N/A   Overcast
6:52 AM 63.0 °F 57.9 °F 84% 29.39 in 10.0 mi NNE 4.6 mph - N/A   Mostly Cloudy
7:52 AM 62.1 °F 59.0 °F 90% 29.43 in 10.0 mi NW 13.8 mph - 0.00 in   Overcast
8:01 AM 60.8 °F 57.2 °F 88% 29.46 in 10.0 mi NW 15.0 mph - N/A   Overcast
8:52 AM 60.1 °F 57.0 °F 90% 29.44 in 5.0 mi NNW 13.8 mph - 0.01 in   Overcast
9:52 AM 60.1 °F 57.0 °F 90% 29.44 in 4.0 mi North 10.4 mph - N/A   Overcast
10:52 AM 64.4 °F 59.0 °F 83% 29.44 in 7.0 mi North 8.1 mph - N/A   Overcast
11:05 AM 64.4 °F 59.0 °F 83% 29.44 in 10.0 mi NNE 4.6 mph - N/A   Overcast
11:52 AM 68.0 °F 60.1 °F 76% 29.44 in 10.0 mi Calm Calm - N/A   Mostly Cloudy
11:59 AM 66.2 °F 60.8 °F 83% 29.47 in 10.0 mi WNW 3.5 mph - N/A   Overcast
12:10 PM 66.2 °F 60.8 °F 83% 29.48 in 10.0 mi WNW 9.2 mph - N/A   Overcast
12:20 PM 66.2 °F 60.8 °F 83% 29.48 in 10.0 mi NW 8.1 mph - N/A   Overcast
12:52 PM 68.0 °F 60.1 °F 76% 29.47 in 10.0 mi NW 9.2 mph - N/A   Overcast
1:52 PM 64.0 °F 61.0 °F 90% 29.51 in 3.0 mi NW 12.7 mph 20.7 mph 0.00 in Rain Light Rain
2:01 PM 66.2 °F 62.6 °F 88% 29.52 in 3.0 mi NW 10.4 mph - 0.01 in Rain Light Rain
2:52 PM 70.0 °F 60.1 °F 71% 29.53 in 10.0 mi NW 10.4 mph - 0.01 in   Overcast
3:21 PM 71.6 °F 60.8 °F 69% 29.55 in 10.0 mi NW 11.5 mph - N/A   Mostly Cloudy
3:52 PM 70.0 °F 59.0 °F 68% 29.54 in 10.0 mi NNW 13.8 mph - N/A   Scattered Clouds
4:52 PM 71.1 °F 57.9 °F 63% 29.56 in 10.0 mi NNW 15.0 mph - N/A   Scattered Clouds
5:52 PM 71.1 °F 55.9 °F 59% 29.57 in 10.0 mi NNW 11.5 mph - N/A   Partly Cloudy
6:52 PM 71.1 °F 55.9 °F 59% 29.60 in 10.0 mi NW 9.2 mph - N/A   Scattered Clouds
7:52 PM 69.1 °F 54.0 °F 58% 29.66 in 10.0 mi NW 11.5 mph - N/A   Scattered Clouds
8:52 PM 64.9 °F 53.1 °F 65% 29.68 in 10.0 mi NNW 6.9 mph - N/A   Partly Cloudy
9:52 PM 64.0 °F 53.1 °F 67% 29.73 in 10.0 mi Calm Calm - N/A   Clear
10:52 PM 60.1 °F 53.1 °F 78% 29.75 in 10.0 mi Calm Calm - N/A   Clear
11:52 PM 59.0 °F 55.0 °F 87% 29.77 in 10.0 mi NNW 3.5 mph - N/A   Clear